Regional Weather Roundup
Issued by NWS

Home | Current Version | Previous Version | Text Only | Print | Product List | Glossary Off
Versions: 1 2 3 4 5 6 7 8 9 10 11 12 13 14 15 16 17 18 19 20 21 22 23 24 25 26 27

000
ASUS45 KBOU 280607
RWRCO

WEATHER ROUNDUP FOR COLORADO
NATIONAL WEATHER SERVICE DENVER/BOULDER CO
1200 AM MDT SUN AUG 28 2016

NOTE: "FAIR" INDICATES FEW OR NO CLOUDS BELOW 12000 FEET WITH NO
SIGNIFICANT WEATHER AND/OR OBSTRUCTIONS TO VISIBILITY.

COZ001>005-013-030-031-280700-
...NORTHWEST COLORADO...

CITY           SKY/WX    TMP DP  RH WIND       PRES   REMARKS
CRAIG          FAIR      54  39  57 CALM      30.22R
HAYDEN         FAIR      54  34  47 E8        30.24R
MEEKER         FAIR      51  42  71 CALM      30.24S
MOUNT WERNER   NOT AVBL
STEAMBOAT SPGS FAIR      51  33  50 CALM      30.26S
WALDEN         FAIR      37  30  75 SE7       30.34S
$$

COZ006>008-011-280700-
...WEST CENTRAL VALLEYS...

CITY           SKY/WX    TMP DP  RH WIND       PRES   REMARKS
GRAND JUNCTION FAIR      67  48  50 E12       30.15S
MONTROSE       FAIR      60  48  64 CALM      30.24F
EAGLE          FAIR      55  43  62 E6        30.27S
RIFLE          FAIR      59  50  72 SE3       30.20R
DELTA          NOT AVBL
NUCLA          FAIR     N/A N/A N/A CALM      30.29S
$$

COZ017>023-064>068-280700-
...SOUTHWEST COLORADO...

CITY           SKY/WX    TMP DP  RH WIND       PRES   REMARKS
DURANGO        FAIR      51  46  83 NE5       30.29F
CORTEZ         MOCLDY    57  49  74 NE5       30.24F
PAGOSA SPRINGS MOCLDY    51  48  88 CALM      30.35S
TELLURIDE      CLOUDY    47  45  92 CALM      30.43F
WOLF CREEK PAS MOCLDY    36  36 100 NE5       30.59S
$$

COZ009-010-012-014-032>034-037-058>063-280700-
...CENTRAL COLORADO...

CITY           SKY/WX    TMP DP  RH WIND       PRES   REMARKS
ASPEN          FAIR      49  42  77 SW7       30.32S
BUENA VISTA    FAIR      48  43  82 W5        30.34S
COPPER MTN     FAIR      46  32  57 NW5       30.57F
BERTHOUD PASS  FAIR      37  27  65 N9        30.60S
COTTONWOOD PAS MOCLDY    52  36  54 W6        30.44F
GUNNISON       FAIR      52  46  82 N6        30.38S
KREMMLING      FAIR      50  36  57 E6        30.32R
LEADVILLE      FAIR      42  35  76 NW3       30.43S
MONARCH PASS   FAIR      37  34  87 SW13      30.66S
SALIDA         FAIR      58  41  54 W7        30.37F
SUNLIGHT       FAIR      46  37  71 CALM      30.53S
WILKERSON PASS CLOUDY    46  32  57 W6        30.55F
$$

COZ069>075-280700-
...SAN LUIS VALLEY/SANGRE DE CRISTO MOUNTAINS...

CITY           SKY/WX    TMP DP  RH WIND       PRES   REMARKS
ALAMOSA        FAIR      48  43  82 NE3       30.33S
LA VETA PASS   FAIR      45  37  76 S7        30.45F
SAGUACHE       FAIR      52  43  71 NW9       30.35S
$$

COZ035-036-038>040-280700-
...NORTHERN COLORADO FRONT RANGE...

CITY           SKY/WX    TMP DP  RH WIND       PRES   REMARKS
DENVER INTL AP FAIR      60  46  59 S13       30.13S
DMNS CITY PARK   N/A     64  48  56 S6        30.12S
AURORA         PTCLDY    64  47  54 S9        30.15S
FRONT RANGE AP NOT AVBL
ERIE MUNI ARPT NOT AVBL
BOULDER MUN AP FAIR      64  41  42 S3        30.12S
CENTENNIAL     MOCLDY    64  45  49 S6        30.16S
BROOMFIELD     MOCLDY    66  36  32 NW5       30.14F
FORT COLLINS   FAIR      64  43  45 CALM      30.10S
LONGMONT       FAIR      65  44  46 W6        30.12S
$$

COZ041-046-047-076>085-087-088-280700-
...PIKES PEAK/PALMER DIVIDE AND SOUTHERN FOOTHILLS...

CITY           SKY/WX    TMP DP  RH WIND       PRES   REMARKS
COLO. SPRINGS  MOCLDY    61  45  55 CALM      30.21F
A. F. ACADEMY  FAIR      56  46  69 CALM      30.22F
SCHRIEVER AFB  NOT AVBL
ELLICOTT       NOT AVBL
FALCON         FAIR      55  46  71 W5        30.26F
FORT CARSON    CLOUDY    63  49  61 W5        30.18F
LIMON          FAIR      52  50  93 E3        30.15F
MONUMENT HILL  FAIR      54  45  71 S8        30.25F
TRINIDAD       FAIR      63  46  54 W9        30.16F
$$

COZ042>045-048>051-090-091-280700-
...NORTHEAST COLORADO...

CITY           SKY/WX    TMP DP  RH WIND       PRES   REMARKS
GREELEY ARPT   FAIR      64  48  55 S7        30.09F
AKRON          FAIR      61  49  64 S10       30.10F
BURLINGTON     FAIR      66  55  67 S17       30.09S
WRAY           FAIR      64  54  68 S3        30.06F
STERLING       FAIR      64  50  59 SE3       30.06F
HOLYOKE        FAIR      61  59  94 S5        30.07F
FORT MORGAN    FAIR      62  48  60 CALM      30.10S
$$

COZ086-089-092>099-280700-
...SOUTHEAST COLORADO...

CITY           SKY/WX    TMP DP  RH WIND       PRES   REMARKS
PUEBLO         FAIR      68  54  60 N12       30.07F
LA JUNTA       FAIR      71  53  52 E8        30.06S
LAMAR          FAIR      70  55  59 S12       30.04R
SPRINGFIELD      N/A     61  58  90 S33G40    30.07F
$$




USA.gov is the U.S. government's official web portal to all federal, state and local government web resources and services.